STARLINK-3675, 51963

Orbit data source: Space-Track

STARLINK-3675, 51963 is a payload satellite owned by SpaceX/Seattle (US) in LEO that was launched on Wed, 09 Mar 2022 UTC via an FALCON 9 launch vehicle from the Air Force Eastern Test Range (AFETR). Payload-class satellites include a variety of spacecraft equipped with specific instruments for various scientific and technological missions. These include communications satellites like Starlink; space stations such as the ISS; scientific satellites like the Hubble; Earth observation satellites from companies like Planet Labs, Umbra, and HawkEye 360; GPS; miniature CubeSats for education and research; and military/defense satellites.

Loading next visibility...
Identifier
51963, 2022-025H
Orbit
LEO
Country
Flag of USUS
Related business
Manufacturer
SpaceX/Seattle
Mission
Operational Commercial Communications
Bus & Motor
STARLINK, Unknown motor
Mass
297 kg wet, ~275 kg dry
Launch date (UTC)
2022-03-09 (4 years ago)
Launch vehicle
FALCON 9
Launch site
Air Force Eastern Test Range (AFETR)
Object type
Payload
Rocket body
Debris
Shape & HBR
Box + 1 Pan, 10.1 m
Radar Cross Section
13.562 m², Large (>1 m²)

Expand to show TLE details & history
Last TLE update: 2 days ago

TLE from 2 days ago
0 STARLINK-3675
1 51963U 22025H   26171.42926551 -.00000167  00000-0  63833-5 0  9999
2 51963  53.1590 255.5940 0001113  81.4819 278.6308 15.31699107236913
Epoch: 2026-06-20T10:18Z
TLE epoch observation values (Epoch: 2026-06-20T10:18:08.540Z)
Latitude
-0.00004°
Longitude
-167.58563°
Altitude
471.529 km
Speed
7.632 km/s
True Right ascension
17h 02m 22s
True Declination
0° 00' 00"
Sunlit
Object was in full shadow at epoch
Visualization orbit readout
Latitude
Unknown
Longitude
Unknown
Altitude
Unknown
Speed
Unknown
Apparent Right ascension
Unknown
Apparent Declination
Unknown
Sunlit
N/A
Visualization observer readout
Local Sidereal Time
21:35:45
Azimuth
Unknown
Elevation
Unknown
Doppler factor
Unknown
Orbital elements
Apogee altitude
471.762 km
Perigee altitude
470.237 km
Semi-major axis
6,849.136 km
Eccentricity
0.00011
Inclination
53.159°
RAAN
255.594°
Arg. of periapsis
81.4819°
True anomaly
278.61819°
Mean anomaly
278.6308°
Eccentric anomaly
278.6245°
Mean motion
3.82904 °/min
Orbital period
94.02 mins
BSTAR
0.0000063833
Loading maneuver chart data...
Computing Atmospheric mass density...
Loading historical data...
Loading historical data...
Loading historical data...
Loading historical data...
Loading historical data...
Loading historical data...
Loading historical data...

Documentation

Showing up to 5 results
|